Location: La Pernelle
(49.6188°N, 1.2999°W)
Time: 09:39:51
(UTC+00:00)

Meteor 2-20 - Pass Details

Date: 28 October 2021
Orbit: 939 x 958 km, 82.5° (Epoch: 08 December)

Event Time Altitude Azimuth Distance (km) Brightness Sun altitude
Rises 03:36:11 0° 139° (SE) 3,606 7.8 -31.3°
Reaches altitude 10° 03:39:25 10° 122° (ESE) 2,663 7.2 -30.8°
Maximum altitude 03:43:27 19° 80° (E) 2,097 7.0 -30.1°
Drops below altitude 10° 03:47:29 10° 38° (NE) 2,668 7.4 -29.5°
Sets 03:50:42 0° 22° (NNE) 3,616 7.9 -29.0°
